Regional Weather Roundup
Issued by NWS

Home | Current Version | Previous Version | Graphics & Text | Print | Product List | Glossary Off
Versions: 1 2 3 4 5 6 7 8 9 10 11 12 13 14 15 16 17 18 19 20 21 22 23 24 25 26 27 28 29 30 31 32 33 34 35 36 37 38 39 40 41 42 43 44 45 46 47 48 49 50

000
ASUS45 KBOU 280107
RWRCO

WEATHER ROUNDUP FOR COLORADO
NATIONAL WEATHER SERVICE DENVER/BOULDER CO
600 PM MST THU NOV 27 2014

NOTE: "FAIR" INDICATES FEW OR NO CLOUDS BELOW 12000 FEET WITH NO
SIGNIFICANT WEATHER AND/OR OBSTRUCTIONS TO VISIBILITY.

COZ001>005-013-030-031-280200-
...NORTHWEST COLORADO...

CITY           SKY/WX    TMP DP  RH WIND       PRES   REMARKS
CRAIG          MOCLDY    34  25  69 CALM      30.28S
HAYDEN         MOCLDY    36  25  64 E8        30.29S
MEEKER         CLOUDY    46  22  38 W9        30.27F
MOUNT WERNER   NOT AVBL
STEAMBOAT SPGS MOCLDY    33  28  83 CALM      30.31S
WALDEN         PTCLDY    37  19  48 S13       30.30S
$$

COZ006>008-011-280200-
...WEST CENTRAL VALLEYS...

CITY           SKY/WX    TMP DP  RH WIND       PRES   REMARKS
GRAND JUNCTION CLOUDY    39  28  64 NW3       30.31F
MONTROSE       MOCLDY    41  24  51 CALM      30.35R
EAGLE          CLEAR     39  27  60 E10       30.34S
RIFLE          CLOUDY    37  29  72 E7        30.33S
DELTA          MOCLDY    47  27  45 NE3       30.32S
NUCLA          MOCLDY    46  23  39 E3        30.38R
$$

COZ017>023-064>068-280200-
...SOUTHWEST COLORADO...

CITY           SKY/WX    TMP DP  RH WIND       PRES   REMARKS
DURANGO        MOCLDY    44  22  41 W5        30.38R
CORTEZ         CLEAR     35  22  58 NE6       30.36S WCI  30
PAGOSA SPRINGS MOCLDY    37  19  47 CALM      30.41S
TELLURIDE      CLOUDY    41  21  45 E8        30.48R
WOLF CREEK PAS PTCLDY    30  14  51 MISG      30.54F
$$

COZ009-010-012-014-032>034-037-058>063-280200-
...CENTRAL COLORADO...

CITY           SKY/WX    TMP DP  RH WIND       PRES   REMARKS
ASPEN          MOCLDY    31  23  72 S8        30.36S WCI  23
BUENA VISTA    PTCLDY    41  15  35 NW8       30.31F
COPPER MTN     MOCLDY    34  12  40 W37G43    30.45S HAZE    WCI  19
BERTHOUD PASS  NOT AVBL
COTTONWOOD PAS PTCLDY    45   9  23 NW23G33   30.35F
GUNNISON       PTCLDY   N/A N/A N/A CALM      30.44S
KREMMLING      MOCLDY    41  21  45 W6        30.33S
LEADVILLE      MOCLDY    35  14  42 N13       30.40S WCI  26
MONARCH PASS   PTCLDY    28  14  54 W33       30.58S WCI  12
SALIDA         PTCLDY    52  13  21 SW16G23   30.37F
SUNLIGHT       CLOUDY    30  27  86 CALM      30.46S
WILKERSON PASS MOCLDY    34  10  37 MISG      30.37F
$$

COZ069>075-280200-
...SAN LUIS VALLEY/SANGRE DE CRISTO MOUNTAINS...

CITY           SKY/WX    TMP DP  RH WIND       PRES   REMARKS
ALAMOSA        MOCLDY    36  16  44 CALM      30.36S
LA VETA PASS   MOCLDY    34  16  47 S14G26    30.40F WCI  24
SAGUACHE       PTCLDY    36  19  51 NE3       30.38S
$$

COZ035-036-038>040-280200-
...NORTHERN COLORADO FRONT RANGE...

CITY           SKY/WX    TMP DP  RH WIND       PRES   REMARKS
DENVER INTL AP MOCLDY    59  19  21 W18       30.11F
DMNS CITY PARK   N/A     57  17  21 E10       30.12R
AURORA         MOCLDY    52  18  26 SE3       30.15S
FRONT RANGE AP NOT AVBL
ERIE MUNI ARPT CLOUDY    60  17  18 W7        30.10S
BOULDER MUN AP CLOUDY    59  21  23 NE13      30.08S
CENTENNIAL     CLOUDY    54  17  23 NW5       30.15F
BROOMFIELD     MOCLDY    59  18  20 NW17G23   30.12F
FORT COLLINS   PTCLDY    54  21  28 CALM      30.10S
LONGMONT       PTCLDY    60  20  21 SE3       30.10S
$$

COZ041-046-047-076>085-087-088-280200-
...PIKES PEAK/PALMER DIVIDE AND SOUTHERN FOOTHILLS...

CITY           SKY/WX    TMP DP  RH WIND       PRES   REMARKS
COLO. SPRINGS  CLOUDY    60  15  17 W25G36    30.18F
A. F. ACADEMY  CLOUDY    56  13  18 W15G26    30.19S
ELLICOTT       NOT AVBL
FALCON         NOT AVBL
FORT CARSON    CLOUDY    57  16  19 VRB1      30.17S
LIMON          MOCLDY    32  21  64 N3        30.14F
MONUMENT HILL  CLOUDY    45  18  33 W13       30.20F
TRINIDAD       MOCLDY    49  25  39 W8        30.21S
$$

COZ042>045-048>051-090-091-280200-
...NORTHEAST COLORADO...

CITY           SKY/WX    TMP DP  RH WIND       PRES   REMARKS
GREELEY ARPT   PTCLDY    50  19  29 SE8       30.10R
AKRON          PTCLDY    46  29  51 W12       30.08F
BURLINGTON     CLOUDY    51  25  36 SW12      30.09S
WRAY           PTCLDY    45  31  58 SW10      30.04F
STERLING       PTCLDY    39  34  81 SW5       30.04F
HOLYOKE        PTCLDY    41  32  70 W9        30.04S
FORT MORGAN    PTCLDY    41  27  57 W8        30.09S
$$

COZ086-089-092>099-280200-
...SOUTHEAST COLORADO...

CITY           SKY/WX    TMP DP  RH WIND       PRES   REMARKS
PUEBLO         CLOUDY    51  18  27 NW8       30.13S
LA JUNTA       CLOUDY    52  24  33 S3        30.10S
LAMAR          CLOUDY    44  27  51 CALM      30.09S
SPRINGFIELD      N/A     44  22  41 SW5       30.13F
$$


USA.gov is the U.S. government's official web portal to all federal, state and local government web resources and services.